Temperature
18 18 18 18 18 18 18 18 18 18 18 18 18 18 18 18 18 18 18 18 18 17 17 17 17 17 17 17 17 17 17 17 16 16 16 16 16 16 16 16 16 16 16
18 18 18 18 18 18 18 18 18 18 18 18 18 18 18 18 18 18 18 18 18 17 17 17 17 17 17 17 17 17 17 17 16 16 16 16 16 16 16 16 16 16 16
18 18 18 18 18 18 18 18 18 18 18 18 18 18 18 18 18 18 18 18 18 17 17 17 17 17 17 17 17 17 17 17 16 16 16 16 16 16 16 16 16 16 16
18 18 18 18 18 18 18 18 18 18 18 18 18 18 18 18 18 18 17 17 17 17 17 17 17 17 17 17 17 17 17 17 17 16 16 16 16 16 16 16 16 16 16
18 18 18 18 18 18 18 18 18 18 18 18 18 18 18 18 18 18 18 17 17 17 17 17 17 17 17 17 17 17 17 17 17 17 16 16 16 16 16 16 16 16 16
18 18 18 18 18 18 18 18 18 18 18 18 18 18 18 18 18 18 18 17 17 17 17 17 17 17 17 17 17 17 17 17 17 16 16 16 16 16 16 16 16 16 16
18 18 18 18 18 18 18 18 18 18 18 18 18 18 18 18 18 18 18 18 17 17 17 17 17 17 17 17 17 17 17 17 17 16 16 16 16 16 16 16 16 16 15
18 18 18 18 18 18 18 18 18 18 18 18 18 18 18 18 18 18 18 18 18 17 17 17 17 17 17 17 17 17 17 17 17 16 16 16 16 16 16 16 16 16 15
18 18 18 18 18 18 18 18 18 18 18 18 18 18 18 18 18 18 18 18 18 18 18 17 17 17 17 17 17 17 17 17 17 17 17 16 16 16 16 16 16 15 15
18 18 18 18 18 18 18 18 18 18 18 18 18 18 18 18 18 18 18 18 18 18 18 18 18 17 17 17 17 17 17 17 17 17 17 16 16 16 16 16 16 15 15
18 18 18 18 18 18 18 18 18 18 18 18 18 18 18 18 18 18 18 18 18 18 18 18 18 18 18 18 17 17 17 17 17 17 17 16 16 16 16 16 16 15 15
18 18 18 18 18 18 18 18 18 18 18 18 18 18 18 18 18 18 18 18 18 18 18 18 18 18 18 18 18 17 17 17 17 17 17 16 16 16 16 16 16 15 15
18 18 18 18 18 18 18 18 18 17 17 18 18 18 18 18 18 18 18 18 18 18 18 18 18 18 18 18 18 17 17 17 17 17 16 16 16 16 16 16 16 15 15
18 18 18 18 18 18 18 17 17 17 17 17 17 17 18 18 18 17 18 18 18 18 18 18 18 18 18 18 18 17 17 17 17 17 16 16 16 16 16 16 16 15 15
18 18 18 18 18 18 17 17 17 17 17 17 17 17 17 17 17 17 17 17 17 17 17 18 18 18 18 18 17 17 17 17 17 17 16 16 16 16 16 16 16 15 15
18 17 17 17 17 17 17 17 17 17 17 17 17 17 17 17 17 17 17 17 17 17 17 17 17 17 17 17 17 17 17 17 17 16 16 16 16 16 16 16 15 15 15
17 17 17 17 17 17 17 17 17 17 17 17 17 17 17 17 17 17 17 17 17 17 17 17 17 17 17 17 17 17 17 16 16 16 16 16 16 16 16 15 15 15 15
17 17 17 17 17 17 17 17 17 17 17 17 17 17 17 17 17 17 17 17 17 17 17 16 16 16 16 17 16 16 16 16 16 16 16 15 15 15 15 15 15 15 15
17 17 17 17 17 17 17 17 17 17 16 16 16 16 16 16 16 16 16 16 16 16 16 16 16 16 16 16 16 16 16 16 15 15 15 15 15 15 15 14 14 14 14
16 16 16 17 17 16 16 16 16 16 16 16 16 16 16 16 16 16 16 16 16 16 16 16 16 15 15 15 15 15 15 15 15 15 14 14 14 14 14 14 14 14 14
16 16 16 16 16 16 16 16 16 16 16 16 15 15 15 15 15 15 15 15 15 15 15 15 15 15 15 15 15 15 14 14 14 14 14 14 13 13 13 13 13 13 13
16 16 16 16 16 16 16 16 16 15 15 15 15 15 15 15 15 15 15 15 15 14 14 14 14 14 14 14 14 14 13 13 13 13 13 13 13 13 13 12 12 12 12
16 16 15 15 15 15 15 15 15 15 15 15 15 15 14 14 14 14 14 14 14 14 13 13 13 13 13 13 13 13 13 12 12 12 12 12 12 12 12 12 11 11 11
15 15 15 15 15 14 14 14 15 14 14 14 14 14 14 14 14 14 14 13 13 13 13 13 13 12 12 12 12 12 12 12 11 11 11 11 11 11 11 11 11 11 11
15 15 14 14 14 14 14 14 14 14 14 13 13 13 13 13 13 13 13 13 13 12 12 12 12 12 12 11 11 11 11 11 11 11 10 10 10 10 11 10 10 10 10
14 14 14 14 14 14 13 13 14 14 13 13 13 13 12 12 12 12 12 12 12 11 11 11 11 11 11 11 11 11 10 10 10 10 10 10 9 9 9 10 9 9 10
Wind_Speed
6 6 6 8 8 7 7 5 4 4 3 3 5 9 10 11 12 11 12 15 14 14 13 13 12 12 12 11 11 10 10 10 9 9 9 9 9 8 8 8 8 7 7
9 7 6 6 8 9 9 7 6 4 3 3 4 8 10 11 12 12 12 14 14 14 14 13 13 12 12 12 11 11 11 10 10 10 9 9 9 9 8 8 8 7 7
11 8 6 5 7 9 8 6 5 4 3 3 4 6 8 10 11 12 13 13 13 14 14 14 14 13 13 12 12 12 11 11 11 11 10 10 10 10 10 9 9 8 8
13 9 5 5 8 8 6 4 3 3 2 2 3 4 5 8 10 12 13 13 13 13 14 15 15 15 14 14 13 13 13 12 12 12 12 12 12 11 11 10 10 10 10
13 10 6 6 8 5 4 5 4 3 3 3 3 3 4 5 7 10 10 13 14 14 15 16 17 17 16 15 15 15 15 14 14 14 13 13 13 13 13 13 12 12 12
13 10 6 6 6 4 4 3 4 3 3 3 3 2 3 4 5 6 9 11 13 15 16 16 16 17 18 17 17 17 16 16 16 16 15 15 15 15 15 15 14 14 14
11 8 5 4 5 5 5 5 4 3 2 2 2 1 2 2 4 5 6 7 9 14 16 17 16 16 16 19 19 19 18 18 18 17 17 16 16 16 16 16 16 16 16
10 9 6 5 5 5 5 5 4 3 2 3 3 2 1 3 3 5 5 6 7 9 12 16 17 18 17 16 19 21 21 20 19 19 19 18 18 18 18 17 17 17 17
11 9 8 6 5 5 5 5 5 6 4 3 3 4 3 4 3 3 4 6 6 6 7 11 16 18 19 18 18 21 23 22 21 20 20 20 19 19 18 18 17 17 17
9 10 8 7 6 5 6 6 6 4 5 3 2 2 3 4 3 2 3 3 6 7 8 8 11 15 18 18 19 21 23 24 23 22 21 20 20 19 19 18 18 18 18
7 8 9 7 6 5 6 6 5 5 5 5 4 2 2 1 2 3 3 3 3 5 6 7 8 11 16 18 18 20 23 25 25 24 22 21 20 19 19 19 18 18 17
5 7 8 7 7 6 6 6 6 6 6 5 4 4 3 3 3 3 3 4 4 4 4 5 6 8 12 15 18 20 23 24 25 24 23 22 21 20 20 20 19 18 18
5 7 7 6 5 6 6 6 6 6 6 6 6 5 5 5 4 4 4 3 3 3 2 3 4 6 9 11 13 17 19 21 22 22 21 21 21 21 20 20 19 19 18
6 6 6 6 6 7 7 5 5 5 5 6 7 6 5 5 4 4 4 4 2 2 2 3 2 3 6 8 10 12 11 15 18 19 20 20 20 20 19 19 19 19 18
6 6 6 6 6 6 6 6 5 5 5 6 6 6 5 5 4 4 4 4 5 3 4 3 2 3 4 6 9 9 10 11 15 17 18 19 19 19 19 19 19 18 18
5 5 6 6 6 6 6 5 5 4 5 5 5 5 5 4 4 3 4 3 4 5 4 3 3 3 3 4 8 9 10 12 14 16 17 17 17 17 17 17 16 16 16
5 5 6 6 6 6 5 5 5 5 5 5 5 5 6 5 4 4 3 3 3 4 5 3 2 2 1 2 2 4 6 7 8 12 13 14 15 15 16 16 15 15 14
4 5 5 5 5 5 5 5 6 5 4 4 4 3 4 4 4 4 3 3 3 3 4 4 2 1 1 1 1 1 1 3 4 6 10 11 12 13 13 13 13 13 13
3 3 4 4 4 4 4 4 4 3 3 3 3 3 4 3 3 2 2 2 3 2 2 3 3 1 1 0 0 1 1 1 1 2 3 5 7 9 10 10 11 11 11
3 3 3 3 3 3 3 3 3 2 2 2 2 2 2 2 2 2 2 2 2 2 1 2 2 1 1 1 1 1 1 1 1 2 2 1 2 4 6 7 8 9 9
3 3 3 2 2 2 2 3 3 2 2 1 1 1 1 2 2 1 1 1 2 2 1 1 0 0 1 1 1 0 0 1 1 1 2 2 2 2 4 5 6 8 8
3 4 4 3 3 3 3 5 4 3 3 2 2 1 1 2 2 3 4 4 3 2 2 1 1 0 1 1 0 0 0 1 1 2 1 2 2 2 3 3 4 6 7
4 5 4 5 5 5 6 5 5 4 4 4 3 3 3 3 4 3 5 6 5 4 2 2 2 2 2 1 1 1 0 1 1 2 1 2 2 3 4 5 5 5 6
5 5 5 5 6 6 6 7 7 6 6 6 5 4 5 4 4 4 5 5 5 4 3 2 2 0 0 0 1 2 2 0 1 2 2 1 2 3 3 4 6 8 8
6 6 5 6 6 6 6 7 7 6 6 6 6 6 5 5 5 6 6 6 5 4 6 7 6 5 6 5 3 2 2 2 1 2 2 1 2 3 3 2 5 9 10
7 7 7 6 6 6 7 7 7 5 6 5 5 6 8 7 7 7 5 5 5 3 3 5 6 7 7 8 7 3 1 1 1 2 2 1 1 2 3 3 3 7 8
Wind_Direction
167 171 176 180 188 186 189 195 204 219 226 203 165 157 157 161 165 169 172 175 174 173 173 174 174 175 176 176 174 171 170 170 170 169 169 170 169 169 167 167 166 166 165
173 176 179 187 195 197 198 197 199 201 197 172 159 159 158 161 169 173 176 180 182 182 182 181 180 182 184 185 185 184 183 182 183 184 184 184 183 182 180 181 181 180 179
176 175 176 187 196 197 195 192 196 184 183 176 163 159 161 168 173 178 181 184 188 191 191 190 189 191 193 194 195 195 195 194 194 196 196 196 195 195 195 196 195 196 196
177 173 175 188 193 186 179 175 177 169 182 176 170 170 168 173 180 184 186 189 191 196 199 200 199 200 202 204 204 204 204 204 204 205 206 206 205 205 206 207 207 208 209
180 176 178 187 181 171 176 185 173 164 177 189 190 182 179 178 182 187 192 197 199 201 203 207 208 208 210 212 212 212 212 212 212 213 214 214 215 215 216 216 216 216 217
180 175 175 181 171 167 181 178 169 170 176 184 194 189 205 200 192 192 196 199 205 208 209 210 212 216 218 219 219 219 219 218 217 219 220 221 221 222 222 222 223 223 224
178 173 175 174 172 178 185 175 161 166 185 153 108 18 327 243 219 214 203 196 206 211 211 212 212 215 220 224 225 224 224 223 221 222 224 225 226 227 227 227 228 229 230
181 188 175 179 184 179 177 177 161 160 190 161 146 124 2 330 283 233 212 207 209 207 210 213 213 215 218 220 225 228 228 227 226 225 226 226 227 229 229 230 231 232 234
186 187 180 182 189 183 187 190 178 169 187 200 171 154 161 218 262 287 235 224 213 206 213 214 214 217 219 221 225 229 228 228 227 228 228 228 229 229 230 231 232 232 234
191 189 186 186 190 191 193 199 186 179 171 191 212 205 181 165 169 260 295 248 225 219 217 219 217 217 219 220 222 226 226 227 227 229 230 230 230 230 231 232 235 236 237
197 194 190 187 192 199 201 198 184 184 182 182 186 190 194 183 164 166 246 277 265 238 222 219 218 216 219 219 221 226 227 226 227 229 231 232 232 232 232 233 236 237 238
204 204 196 189 193 198 204 204 196 191 196 193 191 184 175 177 196 182 209 239 249 255 238 225 221 220 221 219 223 226 226 227 227 228 230 231 232 233 233 234 235 237 239
208 208 204 197 196 200 200 196 198 204 201 200 202 205 202 205 189 182 189 217 239 266 272 248 229 222 221 219 224 226 226 227 229 229 231 232 234 234 234 235 236 238 240
210 203 198 200 201 199 200 195 203 212 207 210 217 211 213 217 204 193 186 183 219 270 273 263 262 227 219 214 216 217 222 225 227 228 229 231 233 235 236 238 239 239 241
204 197 195 200 203 197 198 194 206 216 211 216 219 218 219 222 214 209 199 185 182 217 249 253 253 254 226 218 219 216 222 225 227 229 230 232 234 236 237 239 240 241 241
196 186 192 199 201 199 199 195 201 210 210 222 217 215 221 222 217 211 208 203 191 194 225 239 235 252 237 223 221 216 224 228 228 229 230 230 232 236 237 239 240 241 243
187 186 195 197 199 198 193 191 195 191 206 225 224 220 228 220 218 221 214 208 206 188 217 251 239 258 251 245 226 220 228 228 231 233 232 230 231 234 236 237 239 242 245
186 188 188 187 197 200 196 194 201 195 199 217 227 229 239 228 221 222 208 214 219 203 199 234 258 268 254 244 229 228 248 237 238 244 239 240 243 246 246 245 245 245 247
157 158 164 177 188 192 192 194 190 187 197 212 215 218 237 222 224 222 200 212 221 206 185 203 246 258 268 324 81 354 23 352 289 278 251 249 252 255 255 251 250 250 253
142 139 141 160 165 161 164 169 165 176 187 200 204 214 237 215 208 209 198 209 192 166 168 184 230 263 280 291 90 45 1 351 336 349 343 274 279 268 260 257 255 254 253
127 128 125 128 133 137 148 144 145 150 157 155 96 75 77 87 102 138 151 150 137 143 147 152 217 358 343 13 19 333 267 307 335 340 336 334 341 325 296 276 261 254 253
114 109 111 110 100 104 100 108 118 117 116 121 110 79 69 66 81 85 90 92 114 151 168 165 205 181 277 270 296 41 292 50 331 329 1 336 10 329 319 304 285 262 255
108 102 98 97 95 84 89 96 104 106 95 86 86 81 74 62 68 85 81 72 64 69 119 163 166 229 240 250 181 110 92 139 222 292 32 332 344 337 328 332 323 314 300
112 105 97 95 91 79 82 86 89 88 79 69 65 69 75 60 60 76 86 74 63 52 61 90 124 176 140 194 160 182 198 167 12 358 50 14 333 320 328 348 6 359 345
106 101 97 96 92 76 77 88 93 87 80 64 58 57 66 66 58 76 85 84 71 49 51 64 68 58 49 48 67 80 60 63 5 337 16 57 317 315 315 314 346 353 348
103 100 89 82 86 80 73 80 91 95 87 72 55 48 54 64 63 71 80 82 74 42 40 46 42 38 35 35 41 63 107 114 62 348 340 33 332 352 334 315 329 346 349
Height
1562 1563 1565 1566 1568 1569 1570 1571 1573 1574 1575 1575 1576 1577 1577 1578 1578 1579 1579 1580 1580 1581 1581 1582 1583 1583 1584 1585 1586 1586 1587 1587 1588 1589 1589 1590 1590 1591 1591 1592 1592 1593 1593
1562 1563 1565 1566 1568 1569 1571 1572 1573 1574 1575 1576 1576 1577 1577 1578 1578 1579 1580 1580 1581 1581 1582 1582 1583 1583 1584 1585 1585 1586 1587 1587 1588 1589 1589 1590 1590 1591 1591 1592 1592 1593 1593
1562 1563 1565 1566 1568 1569 1570 1572 1573 1574 1575 1576 1576 1577 1577 1578 1579 1579 1580 1580 1580 1581 1581 1582 1583 1583 1584 1584 1585 1586 1586 1587 1588 1588 1589 1589 1590 1590 1591 1591 1592 1592 1593
1561 1563 1564 1566 1567 1568 1570 1571 1572 1573 1574 1575 1576 1576 1577 1578 1578 1579 1579 1580 1580 1580 1581 1582 1582 1583 1583 1584 1584 1585 1586 1586 1587 1587 1588 1588 1589 1589 1590 1591 1591 1592 1592
1560 1562 1563 1565 1566 1568 1569 1570 1571 1572 1573 1574 1575 1576 1576 1577 1577 1578 1578 1579 1579 1580 1580 1581 1581 1582 1582 1583 1583 1584 1584 1585 1585 1586 1587 1587 1588 1588 1589 1589 1590 1590 1591
1559 1561 1562 1563 1565 1566 1567 1569 1570 1571 1572 1573 1574 1574 1575 1576 1576 1576 1577 1577 1578 1579 1579 1580 1580 1581 1581 1582 1582 1582 1583 1583 1584 1584 1585 1586 1586 1587 1587 1588 1588 1588 1589
1557 1559 1560 1562 1563 1565 1566 1567 1568 1569 1570 1572 1573 1573 1574 1574 1574 1575 1575 1576 1576 1577 1577 1578 1579 1579 1579 1580 1580 1581 1581 1581 1582 1582 1583 1583 1584 1584 1585 1585 1586 1586 1587
1555 1556 1558 1559 1561 1563 1564 1565 1566 1567 1569 1570 1571 1571 1572 1573 1572 1573 1573 1573 1574 1575 1575 1576 1576 1577 1577 1578 1578 1579 1579 1579 1579 1580 1580 1581 1581 1582 1582 1582 1583 1583 1584
1552 1554 1555 1557 1558 1560 1561 1563 1564 1565 1566 1567 1568 1569 1569 1569 1569 1570 1570 1571 1571 1572 1573 1573 1574 1574 1575 1575 1576 1576 1577 1577 1577 1577 1577 1577 1578 1578 1579 1579 1580 1580 1580
1549 1551 1552 1553 1555 1557 1558 1560 1561 1563 1564 1564 1566 1566 1567 1567 1567 1567 1567 1568 1568 1569 1570 1570 1571 1571 1572 1572 1573 1574 1574 1574 1574 1574 1574 1575 1575 1575 1575 1576 1576 1576 1577
1545 1547 1549 1550 1552 1554 1555 1557 1558 1559 1560 1561 1562 1563 1564 1565 1565 1565 1564 1565 1565 1565 1566 1567 1567 1568 1569 1569 1570 1570 1571 1571 1571 1571 1572 1572 1572 1572 1572 1572 1573 1573 1573
1542 1543 1545 1547 1548 1550 1551 1553 1554 1556 1557 1558 1559 1560 1561 1561 1561 1562 1562 1561 1562 1562 1563 1563 1564 1564 1565 1566 1566 1567 1567 1568 1568 1568 1568 1568 1568 1568 1568 1568 1569 1569 1569
1537 1539 1541 1543 1545 1546 1548 1549 1550 1552 1553 1554 1555 1556 1557 1558 1558 1559 1559 1559 1559 1559 1559 1560 1560 1561 1561 1562 1562 1563 1563 1564 1564 1564 1565 1565 1565 1565 1565 1565 1565 1565 1565
1534 1535 1537 1539 1541 1543 1544 1545 1546 1548 1549 1550 1551 1552 1553 1554 1555 1555 1556 1556 1555 1556 1556 1556 1556 1557 1557 1558 1558 1559 1559 1559 1560 1560 1560 1560 1560 1560 1560 1560 1561 1561 1561
1530 1532 1533 1535 1537 1539 1540 1542 1543 1544 1545 1546 1547 1548 1549 1550 1551 1551 1552 1552 1553 1552 1552 1552 1553 1554 1554 1554 1554 1555 1555 1555 1555 1555 1556 1556 1556 1556 1556 1556 1556 1556 1556
1527 1528 1529 1531 1533 1535 1536 1538 1538 1540 1541 1542 1543 1544 1544 1545 1547 1547 1548 1548 1548 1549 1548 1549 1549 1550 1551 1551 1551 1551 1551 1551 1551 1551 1551 1551 1551 1551 1551 1551 1551 1551 1551
1523 1525 1526 1527 1529 1531 1532 1534 1535 1536 1537 1538 1539 1540 1540 1541 1542 1543 1544 1544 1544 1545 1545 1545 1546 1546 1547 1547 1547 1547 1547 1546 1546 1547 1547 1547 1546 1546 1546 1546 1546 1546 1546
1520 1521 1523 1524 1526 1527 1529 1530 1531 1532 1533 1534 1535 1535 1536 1537 1538 1538 1539 1540 1540 1541 1541 1541 1542 1542 1542 1542 1542 1542 1542 1542 1542 1542 1542 1542 1542 1541 1541 1541 1541 1540 1540
1518 1519 1520 1521 1522 1524 1525 1526 1527 1528 1529 1530 1531 1531 1532 1533 1534 1534 1535 1535 1536 1536 1537 1537 1537 1538 1537 1538 1538 1538 1538 1538 1538 1538 1537 1537 1537 1536 1536 1536 1535 1535 1535
1516 1517 1518 1519 1520 1522 1523 1523 1524 1525 1526 1526 1527 1528 1528 1529 1529 1530 1530 1531 1532 1532 1532 1533 1533 1533 1533 1534 1534 1534 1533 1534 1534 1534 1533 1533 1532 1532 1531 1531 1530 1530 1529
1514 1516 1517 1518 1519 1519 1520 1521 1521 1522 1523 1523 1523 1524 1524 1525 1525 1526 1526 1527 1528 1528 1528 1529 1529 1529 1529 1529 1529 1529 1529 1529 1530 1530 1529 1528 1528 1527 1526 1526 1525 1525 1524
1513 1514 1515 1516 1517 1518 1518 1519 1520 1520 1520 1520 1520 1521 1521 1521 1522 1522 1523 1523 1524 1524 1524 1525 1525 1525 1525 1526 1526 1526 1525 1525 1525 1526 1525 1525 1524 1523 1523 1522 1521 1520 1520
1512 1513 1514 1515 1516 1517 1518 1518 1519 1519 1519 1518 1518 1518 1518 1518 1518 1519 1520 1520 1521 1521 1522 1523 1522 1522 1522 1522 1523 1522 1522 1522 1522 1522 1522 1521 1521 1520 1519 1519 1518 1517 1516
1512 1513 1514 1515 1516 1516 1517 1518 1518 1518 1518 1518 1518 1517 1517 1518 1518 1518 1518 1518 1519 1519 1520 1520 1520 1520 1520 1520 1520 1520 1520 1520 1520 1519 1519 1518 1518 1517 1516 1516 1515 1514 1512
1511 1512 1514 1515 1516 1516 1517 1518 1518 1518 1517 1518 1518 1518 1518 1518 1518 1518 1518 1517 1518 1518 1519 1519 1519 1519 1519 1518 1518 1518 1517 1517 1516 1516 1516 1516 1515 1514 1514 1513 1512 1510 1509
1511 1513 1514 1515 1516 1517 1518 1518 1518 1518 1518 1518 1518 1519 1519 1518 1518 1518 1518 1518 1518 1518 1519 1519 1519 1519 1518 1517 1517 1516 1516 1515 1514 1514 1514 1514 1513 1512 1511 1510 1509 1508 1506